Year,Month,Day,Hour,Minute,Value (Times are PST for temperature in C)
2017,04,18,00,00,8.10
2017,04,18,00,01,8.10
2017,04,18,00,02,8.10
2017,04,18,00,03,8.10
2017,04,18,00,04,8.10
2017,04,18,00,05,8.10
2017,04,18,00,06,8.00
2017,04,18,00,07,8.00
2017,04,18,00,08,8.00
2017,04,18,00,09,8.00
2017,04,18,00,10,8.00
2017,04,18,00,11,7.90
2017,04,18,00,12,7.90
2017,04,18,00,13,7.90
2017,04,18,00,14,7.90
2017,04,18,00,15,7.90
2017,04,18,00,16,7.90
2017,04,18,00,17,7.90
2017,04,18,00,18,7.90
2017,04,18,00,19,7.90
2017,04,18,00,20,7.90
2017,04,18,00,21,7.90
2017,04,18,00,22,7.90
2017,04,18,00,23,7.90
2017,04,18,00,24,8.00
2017,04,18,00,25,8.00
2017,04,18,00,26,8.00
2017,04,18,00,27,8.00
2017,04,18,00,28,8.00
2017,04,18,00,29,8.10
2017,04,18,00,30,8.10
2017,04,18,00,31,8.10
2017,04,18,00,32,8.10
2017,04,18,00,33,8.10
2017,04,18,00,34,8.10
2017,04,18,00,35,8.10
2017,04,18,00,36,8.10
2017,04,18,00,37,8.10
2017,04,18,00,38,8.10
2017,04,18,00,39,8.10
2017,04,18,00,40,8.10
2017,04,18,00,41,8.10
2017,04,18,00,42,8.10
2017,04,18,00,43,8.10
2017,04,18,00,44,8.10
2017,04,18,00,45,8.10
2017,04,18,00,46,8.10
2017,04,18,00,47,8.00
2017,04,18,00,48,8.00
2017,04,18,00,49,8.00
2017,04,18,00,50,8.10
2017,04,18,00,51,8.10
2017,04,18,00,52,8.10
2017,04,18,00,53,8.10
2017,04,18,00,54,8.10
2017,04,18,00,55,8.10
2017,04,18,00,56,8.10
2017,04,18,00,57,8.10
2017,04,18,00,58,8.00
2017,04,18,00,59,8.00
2017,04,18,01,00,8.00
2017,04,18,01,01,8.00
2017,04,18,01,02,8.00
2017,04,18,01,03,8.00
2017,04,18,01,04,8.00
2017,04,18,01,05,8.00
2017,04,18,01,06,8.00
2017,04,18,01,07,7.90
2017,04,18,01,08,7.90
2017,04,18,01,09,7.90
2017,04,18,01,10,7.90
2017,04,18,01,11,7.90
2017,04,18,01,12,7.90
2017,04,18,01,13,7.90
2017,04,18,01,14,7.90
2017,04,18,01,15,7.90
2017,04,18,01,16,7.90
2017,04,18,01,17,7.80
2017,04,18,01,18,7.80
2017,04,18,01,19,7.80
2017,04,18,01,20,7.80
2017,04,18,01,21,7.80
2017,04,18,01,22,7.80
2017,04,18,01,23,7.80
2017,04,18,01,24,7.70
2017,04,18,01,25,7.70
2017,04,18,01,26,7.70
2017,04,18,01,27,7.70
2017,04,18,01,28,7.60
2017,04,18,01,29,7.60
2017,04,18,01,30,7.60
2017,04,18,01,31,7.50
2017,04,18,01,32,7.50
2017,04,18,01,33,7.50
2017,04,18,01,34,7.50
2017,04,18,01,35,7.50
2017,04,18,01,36,7.50
2017,04,18,01,37,7.50
2017,04,18,01,38,7.50
2017,04,18,01,39,7.50
2017,04,18,01,40,7.50
2017,04,18,01,41,7.50
2017,04,18,01,42,7.50
2017,04,18,01,43,7.50
2017,04,18,01,44,7.50
2017,04,18,01,45,7.50
2017,04,18,01,46,7.50
2017,04,18,01,47,7.50
2017,04,18,01,48,7.50
2017,04,18,01,49,7.50
2017,04,18,01,50,7.50
2017,04,18,01,51,7.50
2017,04,18,01,52,7.50
2017,04,18,01,53,7.40
2017,04,18,01,54,7.40
2017,04,18,01,55,7.40
2017,04,18,01,56,7.40
2017,04,18,01,57,7.40
2017,04,18,01,58,7.40
2017,04,18,01,59,7.40
2017,04,18,02,00,7.40
2017,04,18,02,01,7.30
2017,04,18,02,02,7.30
2017,04,18,02,03,7.30
2017,04,18,02,04,7.30
2017,04,18,02,05,7.30
2017,04,18,02,06,7.20
2017,04,18,02,07,7.20
2017,04,18,02,08,7.20
2017,04,18,02,09,7.20
2017,04,18,02,10,7.20
2017,04,18,02,11,7.20
2017,04,18,02,12,7.20
2017,04,18,02,13,7.20
2017,04,18,02,14,7.20
2017,04,18,02,15,7.20
2017,04,18,02,16,7.20
2017,04,18,02,17,7.10
2017,04,18,02,18,7.10
2017,04,18,02,19,7.10
2017,04,18,02,20,7.10
2017,04,18,02,21,7.10
2017,04,18,02,22,7.10
2017,04,18,02,23,7.10
2017,04,18,02,24,7.00
2017,04,18,02,25,7.00
2017,04,18,02,26,7.00
2017,04,18,02,27,6.90
2017,04,18,02,28,6.90
2017,04,18,02,29,6.90
2017,04,18,02,30,6.80
2017,04,18,02,31,6.80
2017,04,18,02,32,6.80
2017,04,18,02,33,6.80
2017,04,18,02,34,6.80
2017,04,18,02,35,6.80
2017,04,18,02,36,6.80
2017,04,18,02,37,6.80
2017,04,18,02,38,6.80
2017,04,18,02,39,6.90
2017,04,18,02,40,6.90
2017,04,18,02,41,6.90
2017,04,18,02,42,7.00
2017,04,18,02,43,7.00
2017,04,18,02,44,7.00
2017,04,18,02,45,7.10
2017,04,18,02,46,7.10
2017,04,18,02,47,7.10
2017,04,18,02,48,7.10
2017,04,18,02,49,7.10
2017,04,18,02,50,7.10
2017,04,18,02,51,7.10
2017,04,18,02,52,7.20
2017,04,18,02,53,7.20
2017,04,18,02,54,7.10
2017,04,18,02,55,7.10
2017,04,18,02,56,7.10
2017,04,18,02,57,7.10
2017,04,18,02,58,7.10
2017,04,18,02,59,7.10
2017,04,18,03,00,7.10
2017,04,18,03,01,7.20
2017,04,18,03,02,7.20
2017,04,18,03,03,7.20
2017,04,18,03,04,7.20
2017,04,18,03,05,7.20
2017,04,18,03,06,7.20
2017,04,18,03,07,7.20
2017,04,18,03,08,7.20
2017,04,18,03,09,7.20
2017,04,18,03,10,7.20
2017,04,18,03,11,7.20
2017,04,18,03,12,7.20
2017,04,18,03,13,7.20
2017,04,18,03,14,7.20
2017,04,18,03,15,7.10
2017,04,18,03,16,7.10
2017,04,18,03,17,7.10
2017,04,18,03,18,7.00
2017,04,18,03,19,7.00
2017,04,18,03,20,7.00
2017,04,18,03,21,7.00
2017,04,18,03,22,7.00
2017,04,18,03,23,7.00
2017,04,18,03,24,7.00
2017,04,18,03,25,7.10
2017,04,18,03,26,7.10
2017,04,18,03,27,7.10
2017,04,18,03,28,7.10
2017,04,18,03,29,7.10
2017,04,18,03,30,7.20
2017,04,18,03,31,7.20
2017,04,18,03,32,7.20
2017,04,18,03,33,7.20
2017,04,18,03,34,7.20
2017,04,18,03,35,7.20
2017,04,18,03,36,7.20
2017,04,18,03,37,7.20
2017,04,18,03,38,7.20
2017,04,18,03,39,7.20
2017,04,18,03,40,7.20
2017,04,18,03,41,7.20
2017,04,18,03,42,7.20
2017,04,18,03,43,7.20
2017,04,18,03,44,7.20
2017,04,18,03,45,7.20
2017,04,18,03,46,7.20
2017,04,18,03,47,7.20
2017,04,18,03,48,7.20
2017,04,18,03,49,7.20
2017,04,18,03,50,7.20
2017,04,18,03,51,7.20
2017,04,18,03,52,7.20
2017,04,18,03,53,7.20
2017,04,18,03,54,7.10
2017,04,18,03,55,7.00
2017,04,18,03,56,7.00
2017,04,18,03,57,6.90
2017,04,18,03,58,6.80
2017,04,18,03,59,6.80
2017,04,18,04,00,6.70
2017,04,18,04,01,6.70
2017,04,18,04,02,6.70
2017,04,18,04,03,6.70
2017,04,18,04,04,6.70
2017,04,18,04,05,6.60
2017,04,18,04,06,6.60
2017,04,18,04,07,6.60
2017,04,18,04,08,6.60
2017,04,18,04,09,6.60
2017,04,18,04,10,6.60
2017,04,18,04,11,6.50
2017,04,18,04,12,6.50
2017,04,18,04,13,6.50
2017,04,18,04,14,6.50
2017,04,18,04,15,6.50
2017,04,18,04,16,6.50
2017,04,18,04,17,6.50
2017,04,18,04,18,6.50
2017,04,18,04,19,6.50
2017,04,18,04,20,6.50
2017,04,18,04,21,6.60
2017,04,18,04,22,6.60
2017,04,18,04,23,6.60
2017,04,18,04,24,6.60
2017,04,18,04,25,6.60
2017,04,18,04,26,6.60
2017,04,18,04,27,6.60
2017,04,18,04,28,6.50
2017,04,18,04,29,6.50
2017,04,18,04,30,6.40
2017,04,18,04,31,6.40
2017,04,18,04,32,6.30
2017,04,18,04,33,6.30
2017,04,18,04,34,6.30
2017,04,18,04,35,6.30
2017,04,18,04,36,6.20
2017,04,18,04,37,6.20
2017,04,18,04,38,6.20
2017,04,18,04,39,6.20
2017,04,18,04,40,6.20
2017,04,18,04,41,6.20
2017,04,18,04,42,6.30
2017,04,18,04,43,6.30
2017,04,18,04,44,6.30
2017,04,18,04,45,6.30
2017,04,18,04,46,6.30
2017,04,18,04,47,6.30
2017,04,18,04,48,6.30
2017,04,18,04,49,6.30
2017,04,18,04,50,6.40
2017,04,18,04,51,6.40
2017,04,18,04,52,6.40
2017,04,18,04,53,6.50
2017,04,18,04,54,6.50
2017,04,18,04,55,6.50
2017,04,18,04,56,6.60
2017,04,18,04,57,6.60
2017,04,18,04,58,6.60
2017,04,18,04,59,6.60
2017,04,18,05,00,6.60
2017,04,18,05,01,6.60
2017,04,18,05,02,6.60
2017,04,18,05,03,6.60
2017,04,18,05,04,6.60
2017,04,18,05,05,6.60
2017,04,18,05,06,6.60
2017,04,18,05,07,6.60
2017,04,18,05,08,6.60
2017,04,18,05,09,6.60
2017,04,18,05,10,6.50
2017,04,18,05,11,6.50
2017,04,18,05,12,6.50
2017,04,18,05,13,6.50
2017,04,18,05,14,6.60
2017,04,18,05,15,6.60
2017,04,18,05,16,6.60
2017,04,18,05,17,6.70
2017,04,18,05,18,6.70
2017,04,18,05,19,6.70
2017,04,18,05,20,6.80
2017,04,18,05,21,6.80
2017,04,18,05,22,6.90
2017,04,18,05,23,6.90
2017,04,18,05,24,6.90
2017,04,18,05,25,7.00
2017,04,18,05,26,7.00
2017,04,18,05,27,7.10
2017,04,18,05,28,7.20
2017,04,18,05,29,7.20
2017,04,18,05,30,7.20
2017,04,18,05,31,7.20
2017,04,18,05,32,7.20
2017,04,18,05,33,7.20
2017,04,18,05,34,7.20
2017,04,18,05,35,7.20
2017,04,18,05,36,7.30
2017,04,18,05,37,7.20
2017,04,18,05,38,7.20
2017,04,18,05,39,7.20
2017,04,18,05,40,7.20
2017,04,18,05,41,7.30
2017,04,18,05,42,7.30
2017,04,18,05,43,7.30
2017,04,18,05,44,7.30
2017,04,18,05,45,7.30
2017,04,18,05,46,7.30
2017,04,18,05,47,7.30
2017,04,18,05,48,7.30
2017,04,18,05,49,7.30
2017,04,18,05,50,7.30
2017,04,18,05,51,7.30
2017,04,18,05,52,7.30
2017,04,18,05,53,7.30
2017,04,18,05,54,7.30
2017,04,18,05,55,7.30
2017,04,18,05,56,7.30
2017,04,18,05,57,7.30
2017,04,18,05,58,7.30
2017,04,18,05,59,7.30
2017,04,18,06,00,7.30
2017,04,18,06,01,7.30
2017,04,18,06,02,7.30
2017,04,18,06,03,7.30
2017,04,18,06,04,7.30
2017,04,18,06,05,7.30
2017,04,18,06,06,7.20
2017,04,18,06,07,7.20
2017,04,18,06,08,7.20
2017,04,18,06,09,7.20
2017,04,18,06,10,7.20
2017,04,18,06,11,7.10
2017,04,18,06,12,7.10
2017,04,18,06,13,7.10
2017,04,18,06,14,7.10
2017,04,18,06,15,7.10
2017,04,18,06,16,7.10
2017,04,18,06,17,7.00
2017,04,18,06,18,7.00
2017,04,18,06,19,7.00
2017,04,18,06,20,7.00
2017,04,18,06,21,6.90
2017,04,18,06,22,6.90
2017,04,18,06,23,6.90
2017,04,18,06,24,6.90
2017,04,18,06,25,6.90
2017,04,18,06,26,6.90
2017,04,18,06,27,6.90
2017,04,18,06,28,6.90
2017,04,18,06,29,6.90
2017,04,18,06,30,6.90
2017,04,18,06,31,6.90
2017,04,18,06,32,6.90
2017,04,18,06,33,6.90
2017,04,18,06,34,7.00
2017,04,18,06,35,7.00
2017,04,18,06,36,7.00
2017,04,18,06,37,7.00
2017,04,18,06,38,7.00
2017,04,18,06,39,7.00
2017,04,18,06,40,7.00
2017,04,18,06,41,7.00
2017,04,18,06,42,7.00
2017,04,18,06,43,7.00
2017,04,18,06,44,7.00
2017,04,18,06,45,7.10
2017,04,18,06,46,7.10
2017,04,18,06,47,7.10
2017,04,18,06,48,7.10
2017,04,18,06,49,7.10
2017,04,18,06,50,7.10
2017,04,18,06,51,7.10
2017,04,18,06,52,7.10
2017,04,18,06,53,7.10
2017,04,18,06,54,7.10
2017,04,18,06,55,7.10
2017,04,18,06,56,7.10
2017,04,18,06,57,7.10
2017,04,18,06,58,7.10
2017,04,18,06,59,7.10
2017,04,18,07,00,7.20
2017,04,18,07,01,7.20
2017,04,18,07,02,7.20
2017,04,18,07,03,7.20
2017,04,18,07,04,7.20
2017,04,18,07,05,7.20
2017,04,18,07,06,7.20
2017,04,18,07,07,7.20
2017,04,18,07,08,7.20
2017,04,18,07,09,7.20
2017,04,18,07,10,7.20
2017,04,18,07,11,7.20
2017,04,18,07,12,7.30
2017,04,18,07,13,7.30
2017,04,18,07,14,7.30
2017,04,18,07,15,7.30
2017,04,18,07,16,7.30
2017,04,18,07,17,7.30
2017,04,18,07,18,7.30
2017,04,18,07,19,7.30
2017,04,18,07,20,7.30
2017,04,18,07,21,7.40
2017,04,18,07,22,7.40
2017,04,18,07,23,7.40
2017,04,18,07,24,7.40
2017,04,18,07,25,7.40
2017,04,18,07,26,7.50
2017,04,18,07,27,7.50
2017,04,18,07,28,7.60
2017,04,18,07,29,7.60
2017,04,18,07,30,7.60
2017,04,18,07,31,7.60
2017,04,18,07,32,7.60
2017,04,18,07,33,7.60
2017,04,18,07,34,7.60
2017,04,18,07,35,7.60
2017,04,18,07,36,7.60
2017,04,18,07,37,7.60
2017,04,18,07,38,7.70
2017,04,18,07,39,7.70
2017,04,18,07,40,7.70
2017,04,18,07,41,7.70
2017,04,18,07,42,7.70
2017,04,18,07,43,7.70
2017,04,18,07,44,7.70
2017,04,18,07,45,7.70
2017,04,18,07,46,7.70
2017,04,18,07,47,7.70
2017,04,18,07,48,7.80
2017,04,18,07,49,7.80
2017,04,18,07,50,7.80
2017,04,18,07,51,7.80
2017,04,18,07,52,7.90
2017,04,18,07,53,7.90
2017,04,18,07,54,7.90
2017,04,18,07,55,7.90
2017,04,18,07,56,8.00
2017,04,18,07,57,8.00
2017,04,18,07,58,8.00
2017,04,18,07,59,8.10
2017,04,18,08,00,8.10
2017,04,18,08,01,8.10
2017,04,18,08,02,8.20
2017,04,18,08,03,8.20
2017,04,18,08,04,8.20
2017,04,18,08,05,8.30
2017,04,18,08,06,8.30
2017,04,18,08,07,8.30
2017,04,18,08,08,8.30
2017,04,18,08,09,8.30
2017,04,18,08,10,8.40
2017,04,18,08,11,8.40
2017,04,18,08,12,8.40
2017,04,18,08,13,8.50
2017,04,18,08,14,8.60
2017,04,18,08,15,8.60
2017,04,18,08,16,8.60
2017,04,18,08,17,8.70
2017,04,18,08,18,8.70
2017,04,18,08,19,8.70
2017,04,18,08,20,8.70
2017,04,18,08,21,8.80
2017,04,18,08,22,8.80
2017,04,18,08,23,8.80
2017,04,18,08,24,8.80
2017,04,18,08,25,8.90
2017,04,18,08,26,8.90
2017,04,18,08,27,9.00
2017,04,18,08,28,9.00
2017,04,18,08,29,9.10
2017,04,18,08,30,9.10
2017,04,18,08,31,9.10
2017,04,18,08,32,9.20
2017,04,18,08,33,9.20
2017,04,18,08,34,9.20
2017,04,18,08,35,9.20
2017,04,18,08,36,9.20
2017,04,18,08,37,9.20
2017,04,18,08,38,9.20
2017,04,18,08,39,9.30
2017,04,18,08,40,9.30
2017,04,18,08,41,9.30
2017,04,18,08,42,9.30
2017,04,18,08,43,9.30
2017,04,18,08,44,9.40
2017,04,18,08,45,9.40
2017,04,18,08,46,9.40
2017,04,18,08,47,9.50
2017,04,18,08,48,9.50
2017,04,18,08,49,9.60
2017,04,18,08,50,9.60
2017,04,18,08,51,9.70
2017,04,18,08,52,9.70
2017,04,18,08,53,9.80
2017,04,18,08,54,9.80
2017,04,18,08,55,9.90
2017,04,18,08,56,9.90
2017,04,18,08,57,10.00
2017,04,18,08,58,10.10
2017,04,18,08,59,10.10
2017,04,18,09,00,10.20
2017,04,18,09,01,10.20
2017,04,18,09,02,10.30
2017,04,18,09,03,10.30
2017,04,18,09,04,10.40
2017,04,18,09,05,10.50
2017,04,18,09,06,10.50
2017,04,18,09,07,10.60
2017,04,18,09,08,10.60
2017,04,18,09,09,10.70
2017,04,18,09,10,10.70
2017,04,18,09,11,10.70
2017,04,18,09,12,10.70
2017,04,18,09,13,10.70
2017,04,18,09,14,10.70
2017,04,18,09,15,10.80
2017,04,18,09,16,10.80
2017,04,18,09,17,10.80
2017,04,18,09,18,10.80
2017,04,18,09,19,10.80
2017,04,18,09,20,10.80
2017,04,18,09,21,10.80
2017,04,18,09,22,10.80
2017,04,18,09,23,10.80
2017,04,18,09,24,10.90
2017,04,18,09,25,10.90
2017,04,18,09,26,11.00
2017,04,18,09,27,11.00
2017,04,18,09,28,11.10
2017,04,18,09,29,11.20
2017,04,18,09,30,11.20
2017,04,18,09,31,11.30
2017,04,18,09,32,11.40
2017,04,18,09,33,11.50
2017,04,18,09,34,11.60
2017,04,18,09,35,11.50
2017,04,18,09,36,11.40
2017,04,18,09,37,11.20
2017,04,18,09,38,11.10
2017,04,18,09,39,11.00
2017,04,18,09,40,10.90
2017,04,18,09,41,10.80
2017,04,18,09,42,10.80
2017,04,18,09,43,10.60
2017,04,18,09,44,10.60
2017,04,18,09,45,10.60
2017,04,18,09,46,10.60
2017,04,18,09,47,10.60
2017,04,18,09,48,10.60
2017,04,18,09,49,10.70
2017,04,18,09,50,10.80
2017,04,18,09,51,10.80
2017,04,18,09,52,10.90
2017,04,18,09,53,10.90
2017,04,18,09,54,11.00
2017,04,18,09,55,11.10
2017,04,18,09,56,11.20
2017,04,18,09,57,11.30
2017,04,18,09,58,11.40
2017,04,18,09,59,11.50
2017,04,18,10,00,11.60
2017,04,18,10,01,11.80
2017,04,18,10,02,11.90
2017,04,18,10,03,12.00
2017,04,18,10,04,12.20
2017,04,18,10,05,12.30
2017,04,18,10,06,12.40
2017,04,18,10,07,12.50
2017,04,18,10,08,12.60
2017,04,18,10,09,12.70
2017,04,18,10,10,12.70
2017,04,18,10,11,12.70
2017,04,18,10,12,12.60
2017,04,18,10,13,12.60
2017,04,18,10,14,12.50
2017,04,18,10,15,12.50
2017,04,18,10,16,12.40
2017,04,18,10,17,12.40
2017,04,18,10,18,12.30
2017,04,18,10,19,12.30
2017,04,18,10,20,12.20
2017,04,18,10,21,12.10
2017,04,18,10,22,12.10
2017,04,18,10,23,12.10
2017,04,18,10,24,12.00
2017,04,18,10,25,12.00
2017,04,18,10,26,12.10
2017,04,18,10,27,12.10
2017,04,18,10,28,12.10
2017,04,18,10,29,12.10
2017,04,18,10,30,12.10
2017,04,18,10,31,12.10
2017,04,18,10,32,12.10
2017,04,18,10,33,12.10
2017,04,18,10,34,12.10
2017,04,18,10,35,12.10
2017,04,18,10,36,12.20
2017,04,18,10,37,12.20
2017,04,18,10,38,12.20
2017,04,18,10,39,12.20
2017,04,18,10,40,12.20
2017,04,18,10,41,12.20
2017,04,18,10,42,12.20
2017,04,18,10,43,12.20
2017,04,18,10,44,12.20
2017,04,18,10,45,12.20
2017,04,18,10,46,12.20
2017,04,18,10,47,12.20
2017,04,18,10,48,12.30
2017,04,18,10,49,12.40
2017,04,18,10,50,12.50
2017,04,18,10,51,12.60
2017,04,18,10,52,12.70
2017,04,18,10,53,12.80
2017,04,18,10,54,12.80
2017,04,18,10,55,12.90
2017,04,18,10,56,13.00
2017,04,18,10,57,13.10
2017,04,18,10,58,13.20
2017,04,18,10,59,13.10
2017,04,18,11,00,13.10
2017,04,18,11,01,13.10
2017,04,18,11,02,13.20
2017,04,18,11,03,13.20
2017,04,18,11,04,13.30
2017,04,18,11,05,13.40
2017,04,18,11,06,13.40
2017,04,18,11,07,13.40
2017,04,18,11,08,13.50
2017,04,18,11,09,13.50
2017,04,18,11,10,13.50
2017,04,18,11,11,13.50
2017,04,18,11,12,13.50
2017,04,18,11,13,13.50
2017,04,18,11,14,13.50
2017,04,18,11,15,13.50
2017,04,18,11,16,13.50
2017,04,18,11,17,13.60
2017,04,18,11,18,13.70
2017,04,18,11,19,13.70
2017,04,18,11,20,13.70
2017,04,18,11,21,13.80
2017,04,18,11,22,13.80
2017,04,18,11,23,13.90
2017,04,18,11,24,13.90
2017,04,18,11,25,13.80
2017,04,18,11,26,13.80
2017,04,18,11,27,13.70
2017,04,18,11,28,13.70
2017,04,18,11,29,13.80
2017,04,18,11,30,13.70
2017,04,18,11,31,13.70
2017,04,18,11,32,13.80
2017,04,18,11,33,13.80
2017,04,18,11,34,13.70
2017,04,18,11,35,13.70
2017,04,18,11,36,13.70
2017,04,18,11,37,13.60
2017,04,18,11,38,13.60
2017,04,18,11,39,13.60
2017,04,18,11,40,13.70
2017,04,18,11,41,13.80
2017,04,18,11,42,13.80
2017,04,18,11,43,13.80
2017,04,18,11,44,13.80
2017,04,18,11,45,13.70
2017,04,18,11,46,13.70
2017,04,18,11,47,13.70
2017,04,18,11,48,13.70
2017,04,18,11,49,13.70
2017,04,18,11,50,13.70
2017,04,18,11,51,13.80
2017,04,18,11,52,13.80
2017,04,18,11,53,13.80
2017,04,18,11,54,13.80
2017,04,18,11,55,13.70
2017,04,18,11,56,13.60
2017,04,18,11,57,13.60
2017,04,18,11,58,13.60
2017,04,18,11,59,13.60
2017,04,18,12,00,13.60
2017,04,18,12,01,13.60
2017,04,18,12,02,13.70
2017,04,18,12,03,13.60
2017,04,18,12,04,13.60
2017,04,18,12,05,13.60
2017,04,18,12,06,13.50
2017,04,18,12,07,13.50
2017,04,18,12,08,13.50
2017,04,18,12,09,13.50
2017,04,18,12,10,13.50
2017,04,18,12,11,13.60
2017,04,18,12,12,13.70
2017,04,18,12,13,13.70
2017,04,18,12,14,13.70
2017,04,18,12,15,13.80
2017,04,18,12,16,13.80
2017,04,18,12,17,13.80
2017,04,18,12,18,13.80
2017,04,18,12,19,13.90
2017,04,18,12,20,14.00
2017,04,18,12,21,14.10
2017,04,18,12,22,14.00
2017,04,18,12,23,14.00
2017,04,18,12,24,13.90
2017,04,18,12,25,13.90
2017,04,18,12,26,13.80
2017,04,18,12,27,13.90
2017,04,18,12,28,14.00
2017,04,18,12,29,14.00
2017,04,18,12,30,14.10
2017,04,18,12,31,14.10
2017,04,18,12,32,14.10
2017,04,18,12,33,14.10
2017,04,18,12,34,14.10
2017,04,18,12,35,14.00
2017,04,18,12,36,13.90
2017,04,18,12,37,13.90
2017,04,18,12,38,13.90
2017,04,18,12,39,13.90
2017,04,18,12,40,14.00
2017,04,18,12,41,13.90
2017,04,18,12,42,13.90
2017,04,18,12,43,13.80
2017,04,18,12,44,13.80
2017,04,18,12,45,13.90
2017,04,18,12,46,14.00
2017,04,18,12,47,14.10
2017,04,18,12,48,14.10
2017,04,18,12,49,14.10
2017,04,18,12,50,14.10
2017,04,18,12,51,14.20
2017,04,18,12,52,14.20
2017,04,18,12,53,14.10
2017,04,18,12,54,14.10
2017,04,18,12,55,14.10
2017,04,18,12,56,13.90
2017,04,18,12,57,13.90
2017,04,18,12,58,13.90
2017,04,18,12,59,14.00
2017,04,18,13,00,14.10
2017,04,18,13,01,14.10
2017,04,18,13,02,14.20
2017,04,18,13,03,14.20
2017,04,18,13,04,14.20
2017,04,18,13,05,14.30
2017,04,18,13,06,14.30
2017,04,18,13,07,14.40
2017,04,18,13,08,14.40
2017,04,18,13,09,14.30
2017,04,18,13,10,14.30
2017,04,18,13,11,14.40
2017,04,18,13,12,14.40
2017,04,18,13,13,14.40
2017,04,18,13,14,14.30
2017,04,18,13,15,14.20
2017,04,18,13,16,14.10
2017,04,18,13,17,14.10
2017,04,18,13,18,14.00
2017,04,18,13,19,14.00
2017,04,18,13,20,14.00
2017,04,18,13,21,14.10
2017,04,18,13,22,14.10
2017,04,18,13,23,14.10
2017,04,18,13,24,14.10
2017,04,18,13,25,14.20
2017,04,18,13,26,14.20
2017,04,18,13,27,14.20
2017,04,18,13,28,14.10
2017,04,18,13,29,14.10
2017,04,18,13,30,14.10
2017,04,18,13,31,14.10
2017,04,18,13,32,14.10
2017,04,18,13,33,14.00
2017,04,18,13,34,14.00
2017,04,18,13,35,14.10
2017,04,18,13,36,14.20
2017,04,18,13,37,14.20
2017,04,18,13,38,14.20
2017,04,18,13,39,14.20
2017,04,18,13,40,14.30
2017,04,18,13,41,14.30
2017,04,18,13,42,14.20
2017,04,18,13,43,14.20
2017,04,18,13,44,14.10
2017,04,18,13,45,14.10
2017,04,18,13,46,14.20
2017,04,18,13,47,14.10
2017,04,18,13,48,14.20
2017,04,18,13,49,14.30
2017,04,18,13,50,14.40
2017,04,18,13,51,14.40
2017,04,18,13,52,14.40
2017,04,18,13,53,14.30
2017,04,18,13,54,14.30
2017,04,18,13,55,14.30
2017,04,18,13,56,14.20
2017,04,18,13,57,14.10
2017,04,18,13,58,14.10
2017,04,18,13,59,14.20
2017,04,18,14,00,14.20
2017,04,18,14,01,14.30
2017,04,18,14,02,14.20
2017,04,18,14,03,14.20
2017,04,18,14,04,14.20
2017,04,18,14,05,14.20
2017,04,18,14,06,14.20
2017,04,18,14,07,14.30
2017,04,18,14,08,14.30
2017,04,18,14,09,14.20
2017,04,18,14,10,14.40
2017,04,18,14,11,14.50
2017,04,18,14,12,14.50
2017,04,18,14,13,14.40
2017,04,18,14,14,14.40
2017,04,18,14,15,14.30
2017,04,18,14,16,14.40
2017,04,18,14,17,14.40
2017,04,18,14,18,14.50
2017,04,18,14,19,14.50
2017,04,18,14,20,14.40
2017,04,18,14,21,14.40
2017,04,18,14,22,14.40
2017,04,18,14,23,14.50
2017,04,18,14,24,14.50
2017,04,18,14,25,14.40
2017,04,18,14,26,14.40
2017,04,18,14,27,14.40
2017,04,18,14,28,14.50
2017,04,18,14,29,14.60
2017,04,18,14,30,14.70
2017,04,18,14,31,14.60
2017,04,18,14,32,14.60
2017,04,18,14,33,14.60
2017,04,18,14,34,14.60
2017,04,18,14,35,14.50
2017,04,18,14,36,14.50
2017,04,18,14,37,14.40
2017,04,18,14,38,14.40
2017,04,18,14,39,14.40
2017,04,18,14,40,14.40
2017,04,18,14,41,14.40
2017,04,18,14,42,14.50
2017,04,18,14,43,14.40
2017,04,18,14,44,14.30
2017,04,18,14,45,14.20
2017,04,18,14,46,14.10
2017,04,18,14,47,14.10
2017,04,18,14,48,14.10
2017,04,18,14,49,14.10
2017,04,18,14,50,14.10
2017,04,18,14,51,14.10
2017,04,18,14,52,14.20
2017,04,18,14,53,14.20
2017,04,18,14,54,14.20
2017,04,18,14,55,14.10
2017,04,18,14,56,14.00
2017,04,18,14,57,13.90
2017,04,18,14,58,13.90
2017,04,18,14,59,14.10
2017,04,18,15,00,14.20
2017,04,18,15,01,14.30
2017,04,18,15,02,14.40
2017,04,18,15,03,14.40
2017,04,18,15,04,14.30
2017,04,18,15,05,14.30
2017,04,18,15,06,14.40
2017,04,18,15,07,14.40
2017,04,18,15,08,14.40
2017,04,18,15,09,14.40
2017,04,18,15,10,14.40
2017,04,18,15,11,14.40
2017,04,18,15,12,14.50
2017,04,18,15,13,14.60
2017,04,18,15,14,14.70
2017,04,18,15,15,14.70
2017,04,18,15,16,14.60
2017,04,18,15,17,14.60
2017,04,18,15,18,14.70
2017,04,18,15,19,14.70
2017,04,18,15,20,14.70
2017,04,18,15,21,14.70
2017,04,18,15,22,14.70
2017,04,18,15,23,14.60
2017,04,18,15,24,14.60
2017,04,18,15,25,14.70
2017,04,18,15,26,14.60
2017,04,18,15,27,14.60
2017,04,18,15,28,14.50
2017,04,18,15,29,14.50
2017,04,18,15,30,14.50
2017,04,18,15,31,14.40
2017,04,18,15,32,14.30
2017,04,18,15,33,14.20
2017,04,18,15,34,14.20
2017,04,18,15,35,14.20
2017,04,18,15,36,14.10
2017,04,18,15,37,14.10
2017,04,18,15,38,14.20
2017,04,18,15,39,14.30
2017,04,18,15,40,14.20
2017,04,18,15,41,14.20
2017,04,18,15,42,14.10
2017,04,18,15,43,14.10
2017,04,18,15,44,14.20
2017,04,18,15,45,14.30
2017,04,18,15,46,14.30
2017,04,18,15,47,14.30
2017,04,18,15,48,14.30
2017,04,18,15,49,14.30
2017,04,18,15,50,14.30
2017,04,18,15,51,14.40
2017,04,18,15,52,14.40
2017,04,18,15,53,14.50
2017,04,18,15,54,14.50
2017,04,18,15,55,14.40
2017,04,18,15,56,14.30
2017,04,18,15,57,14.30
2017,04,18,15,58,14.20
2017,04,18,15,59,14.20
2017,04,18,16,00,14.10
2017,04,18,16,01,14.10
2017,04,18,16,02,14.10
2017,04,18,16,03,14.00
2017,04,18,16,04,14.00
2017,04,18,16,05,14.00
2017,04,18,16,06,14.10
2017,04,18,16,07,14.10
2017,04,18,16,08,14.20
2017,04,18,16,09,14.20
2017,04,18,16,10,14.00
2017,04,18,16,11,14.00
2017,04,18,16,12,13.90
2017,04,18,16,13,13.90
2017,04,18,16,14,13.90
2017,04,18,16,15,13.90
2017,04,18,16,16,14.00
2017,04,18,16,17,13.90
2017,04,18,16,18,13.80
2017,04,18,16,19,13.80
2017,04,18,16,20,13.70
2017,04,18,16,21,13.80
2017,04,18,16,22,13.80
2017,04,18,16,23,13.70
2017,04,18,16,24,13.70
2017,04,18,16,25,13.80
2017,04,18,16,26,13.80
2017,04,18,16,27,13.80
2017,04,18,16,28,13.80
2017,04,18,16,29,13.80
2017,04,18,16,30,13.80
2017,04,18,16,31,13.80
2017,04,18,16,32,13.80
2017,04,18,16,33,13.80
2017,04,18,16,34,13.80
2017,04,18,16,35,13.80
2017,04,18,16,36,13.90
2017,04,18,16,37,13.90
2017,04,18,16,38,13.90
2017,04,18,16,39,13.90
2017,04,18,16,40,13.90
2017,04,18,16,41,13.90
2017,04,18,16,42,13.80
2017,04,18,16,43,13.90
2017,04,18,16,44,14.00
2017,04,18,16,45,14.00
2017,04,18,16,46,14.10
2017,04,18,16,47,14.20
2017,04,18,16,48,14.20
2017,04,18,16,49,14.20
2017,04,18,16,50,14.10
2017,04,18,16,51,14.10
2017,04,18,16,52,14.10
2017,04,18,16,53,14.00
2017,04,18,16,54,14.10
2017,04,18,16,55,14.00
2017,04,18,16,56,14.00
2017,04,18,16,57,14.00
2017,04,18,16,58,14.10
2017,04,18,16,59,14.20
2017,04,18,17,00,14.30
2017,04,18,17,01,14.30
2017,04,18,17,02,14.30
2017,04,18,17,03,14.30
2017,04,18,17,04,14.20
2017,04,18,17,05,14.30
2017,04,18,17,06,14.50
2017,04,18,17,07,14.50
2017,04,18,17,08,14.60
2017,04,18,17,09,14.60
2017,04,18,17,10,14.70
2017,04,18,17,11,14.60
2017,04,18,17,12,14.50
2017,04,18,17,13,14.40
2017,04,18,17,14,14.30
2017,04,18,17,15,14.30
2017,04,18,17,16,14.30
2017,04,18,17,17,14.20
2017,04,18,17,18,14.20
2017,04,18,17,19,14.20
2017,04,18,17,20,14.10
2017,04,18,17,21,14.00
2017,04,18,17,22,13.90
2017,04,18,17,23,13.90
2017,04,18,17,24,13.90
2017,04,18,17,25,13.90
2017,04,18,17,26,13.90
2017,04,18,17,27,14.00
2017,04,18,17,28,14.00
2017,04,18,17,29,14.00
2017,04,18,17,30,13.90
2017,04,18,17,31,13.80
2017,04,18,17,32,13.90
2017,04,18,17,33,13.90
2017,04,18,17,34,13.80
2017,04,18,17,35,13.90
2017,04,18,17,36,13.90
2017,04,18,17,37,13.90
2017,04,18,17,38,13.90
2017,04,18,17,39,13.80
2017,04,18,17,40,13.80
2017,04,18,17,41,13.90
2017,04,18,17,42,13.90